Starlink 31419

operational
NORAD ID: 59368 Int'l Des: 2024-060 Owner: SPXS Country: US Constellation: starlink
LEOCIRCULAR

Über Starlink 31419

Beschreibung wird geladen...

Live-Position

3D-Globus wird geladen...

Nächste Überflüge

Höhenverlauf

Altitude vs Time

uPlot chart will show altitude changes over time

Zweizeiliger Elementsatz

1 59368U 24060W 25305.20312058 -.00002666 00000-0 -87429-4 0 9995
2 59368 43.0008 265.3774 0000280 178.1444 181.9408 15.27569138 90413
Epoch: 1. Nov. 2025 • Age: 37 hours

Aktueller Status

Höhe 494.9 km
Geschwindigkeit 7.62 km/s
Subsatellitenpunkt -39.24°S, 119.91°W
Startdatum 31. März 2024
Alter 1.5 years
Typ internet

Technische Details

Klassifizierung Payload
Masse 730.00 kg
Trockenmasse 700.00 kg
Gesamtmasse 730.00 kg
Länge 0.30 m
Durchmesser 4.10 m
Spannweite 29.00 m
Form Box + pan
Hersteller SPXS
Bus-Typ Starlink V2M
Phasenstatus In Orbit
Besitzer/Staat SPXS/US

Große Konstellationen

Loading constellations...